TK5EP-13 Weather Reports


time (UTC)temp
F
wind
direction
speed
knots
gust
knots
rain 1hr
in
rain 24hr
in
rain mn
in
humidity
%
barometer
mb
20260505100739 59 178 7.0 18.2 0.00 0.00 0.00 97
20260505100238 58 182 7.8 17.4 0.00 0.00 0.00 97
20260505095737 57 188 10.4 16.5 0.00 0.00 0.00 97
20260505095236 56 182 8.7 20.0 0.00 0.00 0.00 97
20260505094735 56 188 13.9 20.0 0.00 0.00 0.00 97
20260505094234 56 183 9.6 19.1 0.00 0.00 0.00 97
20260505093733 56 178 10.4 19.1 0.00 0.00 0.00 97
20260505093233 56 191 15.6 19.1 0.00 0.00 0.00 97
20260505092729 56 206 13.0 25.2 0.00 0.00 0.00 97
20260505092228 56 194 15.6 25.2 0.00 0.00 0.00 97
20260505091725 56 192 13.9 20.9 0.00 0.00 0.00 97
20260505091224 55 221 11.3 20.9 0.00 0.00 0.00 97
20260505090723 55 199 13.9 20.9 0.00 0.00 0.00 97
20260505090222 55 212 14.8 23.5 0.00 0.00 0.00 97
20260505085721 55 210 12.2 23.5 0.00 0.00 0.00 97
20260505085220 56 190 11.3 19.1 0.00 0.00 0.00 97
20260505084719 55 186 13.0 24.3 0.00 0.00 0.00 97
20260505084218 55 212 16.5 24.3 0.00 0.00 0.00 97
20260505083715 55 213 15.6 21.7 0.00 0.00 0.00 97
20260505083214 56 202 13.9 19.1 0.00 0.00 0.00 97
20260505082713 55 186 13.9 20.0 0.00 0.00 0.00 97
20260505082212 55 188 12.2 20.0 0.00 0.00 0.00 97
20260505081711 55 197 13.9 21.7 0.00 0.00 0.00 97
20260505081210 55 203 13.9 21.7 0.00 0.00 0.00 97
20260505080709 55 205 15.6 20.0 0.00 0.00 0.00 97
20260505080209 55 188 13.9 20.9 0.00 0.00 0.00 97
20260505075705 55 189 16.5 20.9 0.00 0.00 0.00 97
20260505075204 55 193 15.6 20.0 0.00 0.00 0.00 97
20260505074703 55 194 13.9 19.1 0.00 0.00 0.00 97
20260505074202 55 190 14.8 19.1 0.00 0.00 0.00 97
20260505073659 55 204 15.6 19.1 0.00 0.00 0.00 97
20260505073158 55 197 13.0 19.1 0.00 0.00 0.00 97
20260505072657 55 207 13.0 20.0 0.00 0.00 0.00 97
20260505072156 55 215 13.9 20.0 0.00 0.00 0.00 97
20260505071655 55 214 14.8 21.7 0.00 0.00 0.00 97
20260505071154 55 199 14.8 21.7 0.00 0.00 0.00 97
20260505070651 55 184 14.8 20.9 0.00 0.00 0.00 97
20260505070150 55 186 13.0 20.0 0.00 0.00 0.00 97
20260505065649 55 214 12.2 18.2 0.00 0.00 0.00 97
20260505065148 55 207 13.0 19.1 0.00 0.00 0.00 97
20260505064645 55 193 13.9 22.6 0.00 0.00 0.00 97
20260505064144 55 192 14.8 22.6 0.00 0.00 0.00 97
20260505063643 55 188 14.8 20.0 0.00 0.00 0.00 97
20260505063142 55 197 15.6 19.1 0.00 0.00 0.00 97
20260505062641 55 205 14.8 20.0 0.00 0.00 0.00 97
20260505062138 55 186 15.6 20.0 0.00 0.00 0.00 97
20260505061637 55 196 15.6 20.0 0.00 0.00 0.00 97
20260505061135 55 196 14.8 20.0 0.00 0.00 0.00 97
20260505060634 55 203 16.5 20.0 0.00 0.00 0.00 97
20260505060133 55 197 14.8 20.0 0.00 0.00 0.00 97
20260505055632 55 199 13.9 20.0 0.00 0.00 0.00 97
20260505055131 55 196 15.6 20.0 0.00 0.00 0.00 97
20260505054631 55 197 14.8 20.9 0.00 0.00 0.00 97
20260505054130 55 205 15.6 20.9 0.00 0.00 0.00 97
20260505053629 55 210 16.5 20.9 0.00 0.00 0.00 97
20260505053128 55 212 16.5 21.7 0.00 0.00 0.00 97
20260505052627 55 200 15.6 21.7 0.00 0.00 0.00 97
20260505052126 55 195 16.5 23.5 0.00 0.00 0.00 97
20260505051625 55 220 15.6 23.5 0.00 0.00 0.00 97
20260505051124 55 201 15.6 23.5 0.00 0.00 0.00 97
20260505050624 55 193 17.4 22.6 0.00 0.00 0.00 97
20260505050123 55 199 16.5 25.2 0.00 0.00 0.00 97
20260505041613 55 194 20.0 26.9 0.00 0.00 0.00 96
20260505041112 55 200 17.4 26.9 0.00 0.00 0.00 96
20260505040611 55 189 20.0 26.1 0.00 0.00 0.00 96
20260505040110 55 194 18.2 27.8 0.00 0.00 0.00 96
20260505035609 55 192 18.2 26.9 0.00 0.00 0.00 96
20260505035108 55 187 18.2 26.1 0.00 0.00 0.00 96
20260505034607 55 201 18.2 26.1 0.00 0.00 0.00 96
20260505034107 55 197 16.5 25.2 0.00 0.00 0.00 96
20260505033606 55 188 15.6 26.1 0.00 0.00 0.00 96
20260505033105 55 189 18.2 26.1 0.00 0.00 0.00 96
20260505032604 55 188 16.5 23.5 0.00 0.00 0.00 95
20260505032103 55 188 12.2 23.5 0.00 0.00 0.00 95
20260505031559 54 195 14.8 24.3 0.00 0.00 0.00 95
20260505031058 54 186 15.6 24.3 0.00 0.00 0.00 95
20260505030555 54 186 13.0 20.9 0.00 0.00 0.00 95
20260505030054 55 184 13.9 21.7 0.00 0.00 0.00 95
20260505025553 54 185 11.3 21.7 0.00 0.00 0.00 95
20260505025050 54 184 13.0 19.1 0.00 0.00 0.00 95
20260505024546 54 180 11.3 19.1 0.00 0.00 0.00 95
20260505024045 55 178 12.2 19.1 0.00 0.00 0.00 95
20260505023544 55 175 10.4 20.0 0.00 0.00 0.00 95
20260505023044 55 173 10.4 19.1 0.00 0.00 0.00 95
20260505022543 54 166 12.2 19.1 0.00 0.00 0.00 95
20260505022042 55 171 11.3 20.0 0.00 0.00 0.00 95
20260505021541 55 175 13.0 20.0 0.00 0.00 0.00 95
20260505021040 55 174 13.9 20.0 0.00 0.00 0.00 95
20260505020539 55 177 13.0 20.0 0.00 0.00 0.00 95
20260505020039 54 173 14.8 20.0 0.00 0.00 0.00 95
20260505015535 54 173 13.0 22.6 0.00 0.00 0.00 94
20260505015031 55 181 13.0 22.6 0.00 0.00 0.00 95
20260505014530 55 178 13.9 21.7 0.00 0.00 0.00 95
20260505014029 54 174 14.8 20.9 0.00 0.00 0.00 94
20260505013526 54 176 13.9 20.0 0.00 0.00 0.00 94
20260505013025 54 165 13.9 20.0 0.00 0.00 0.00 94
20260505012524 54 169 13.0 19.1 0.00 0.00 0.00 94
20260505012023 55 149 10.4 20.0 0.00 0.00 0.00 94
20260505011522 54 152 13.0 20.0 0.00 0.00 0.00 94
20260505011021 54 168 13.0 20.9 0.00 0.00 0.00 94
20260505010520 55 172 12.2 21.7 0.00 0.00 0.00 94
20260505010019 55 172 12.2 22.6 0.00 0.00 0.00 94
20260505005518 54 174 14.8 22.6 0.00 0.00 0.00 94
20260505005017 55 182 17.4 24.3 0.00 0.00 0.00 94
20260505004516 55 178 17.4 24.3 0.00 0.00 0.00 94
20260505004015 55 177 14.8 24.3 0.00 0.00 0.00 94
20260505003514 55 171 15.6 23.5 0.00 0.00 0.00 94
20260505003013 55 171 15.6 23.5 0.00 0.00 0.00 94
20260505002513 55 174 14.8 23.5 0.00 0.00 0.00 94
20260505002009 55 175 13.0 23.5 0.00 0.00 0.00 93
20260505001508 55 172 12.2 20.9 0.00 0.00 0.00 93
20260505001008 55 174 13.0 20.9 0.00 0.00 0.00 93
20260505000507 55 179 15.6 22.6 0.00 0.00 0.00 93
20260505000006 55 177 13.0 23.5 0.00 0.00 0.00 93
20260504235505 55 170 14.8 26.9 0.00 0.00 0.00 93
20260504235004 55 163 18.2 26.9 0.00 0.00 0.00 93
20260504234504 55 166 16.5 26.9 0.00 0.00 0.00 93
20260504234003 55 166 14.8 22.6 0.00 0.00 0.00 93
20260504233502 55 169 16.5 25.2 0.00 0.00 0.00 93
20260504233001 55 161 18.2 25.2 0.00 0.00 0.00 93
20260504232500 55 152 16.5 24.3 0.00 0.00 0.00 93
20260504231959 55 174 12.2 27.8 0.00 0.00 0.00 92
20260504231459 55 164 15.6 24.3 0.00 0.00 0.00 92
20260504230958 55 157 18.2 25.2 0.00 0.00 0.00 92
20260504230457 55 164 16.5 25.2 0.00 0.00 0.00 92
20260504225956 55 164 14.8 23.5 0.00 0.00 0.00 92
20260504225455 55 151 13.9 24.3 0.00 0.00 0.00 92
20260504224954 55 158 16.5 24.3 0.00 0.00 0.00 92
20260504224453 55 158 15.6 21.7 0.00 0.00 0.00 91
20260504223953 55 158 16.5 26.1 0.00 0.00 0.00 91
20260504223449 55 151 15.6 26.1 0.00 0.00 0.00 91
20260504222948 55 159 15.6 26.1 0.00 0.00 0.00 91
20260504222445 55 151 15.6 26.9 0.00 0.00 0.00 91
20260504221944 55 147 13.9 26.9 0.00 0.00 0.00 90
20260504221443 55 146 13.9 25.2 0.00 0.00 0.00 90
20260504220942 55 147 15.6 25.2 0.00 0.00 0.00 90
20260504220442 55 127 11.3 22.6 0.00 0.00 0.00 90
20260504215941 55 149 13.0 22.6 0.00 0.00 0.00 90
20260504215440 55 134 10.4 19.1 0.00 0.00 0.00 90
20260504214939 55 133 8.7 19.1 0.00 0.00 0.00 91
20260504214438 55 109 8.7 17.4 0.00 0.00 0.00 91
20260504213937 55 96 7.0 19.1 0.00 0.00 0.00 91
20260504213436 55 105 7.0 19.1 0.00 0.00 0.00 91
20260504212936 55 84 6.1 17.4 0.00 0.00 0.00 91
20260504212435 55 90 7.0 17.4 0.00 0.00 0.00 91
20260504211934 55 94 6.1 15.6 0.00 0.00 0.00 91
20260504211433 55 96 7.0 17.4 0.00 0.00 0.00 91
20260504210930 55 97 7.8 17.4 0.00 0.00 0.00 92
20260504210429 54 97 7.8 16.5 0.00 0.00 0.00 92
20260504205928 54 92 8.7 16.5 0.00 0.00 0.00 92
20260504205427 54 92 9.6 16.5 0.00 0.00 0.00 92
20260504204926 54 89 8.7 17.4 0.00 0.00 0.00 92
20260504204425 54 88 9.6 17.4 0.00 0.00 0.00 92
20260504203924 54 97 8.7 19.1 0.00 0.00 0.00 92
20260504203424 54 99 7.8 19.1 0.00 0.00 0.00 92
20260504202923 53 98 7.8 18.2 0.00 0.00 0.00 92
20260504202422 53 88 9.6 15.6 0.00 0.00 0.00 91
20260504201921 53 90 8.7 16.5 0.00 0.00 0.00 91
20260504201420 53 94 8.7 13.9 0.00 0.00 0.00 91
20260504200919 54 95 8.7 16.5 0.00 0.00 0.00 91
20260504200418 53 94 8.7 16.5 0.00 0.00 0.00 91
20260504195917 54 87 8.7 14.8 0.00 0.00 0.00 91
20260504195416 53 88 7.8 15.6 0.00 0.00 0.00 90
20260504194915 53 90 8.7 15.6 0.00 0.00 0.00 90
20260504194415 53 85 8.7 14.8 0.00 0.00 0.00 90
20260504193914 53 81 7.8 13.0 0.00 0.00 0.00 89
20260504193413 53 85 7.0 12.2 0.00 0.00 0.00 88
20260504192912 53 83 7.0 12.2 0.00 0.00 0.00 88
20260504192411 53 96 7.0 12.2 0.00 0.00 0.00 87
20260504191910 53 102 7.0 12.2 0.00 0.00 0.00 86
20260504191409 53 107 6.1 13.0 0.00 0.00 0.00 86
20260504190909 53 119 7.8 17.4 0.00 0.00 0.00 85
20260504190405 53 144 10.4 17.4 0.00 0.00 0.00 85
20260504185904 53 146 10.4 16.5 0.00 0.00 0.00 84
20260504185403 54 154 12.2 16.5 0.00 0.00 0.00 83
20260504184903 54 149 11.3 16.5 0.00 0.00 0.00 81
20260504184402 54 131 7.8 14.8 0.00 0.00 0.00 79
20260504183901 55 136 7.8 15.6 0.00 0.00 0.00 79
20260504183400 55 119 7.8 13.9 0.00 0.00 0.00 80
20260504182900 54 120 7.0 13.0 0.00 0.00 0.00 80
20260504182359 54 114 4.3 11.3 0.00 0.00 0.00 80
20260504181858 55 115 6.1 13.0 0.00 0.00 0.00 80
20260504181357 55 94 3.5 13.0 0.00 0.00 0.00 79
20260504180856 55 96 5.2 11.3 0.00 0.00 0.00 79
20260504180355 55 98 6.1 11.3 0.00 0.00 0.00 78
20260504175852 56 97 6.1 9.6 0.00 0.00 0.00 77
20260504175350 56 109 4.3 8.7 0.00 0.00 0.00 76
20260504174849 56 100 3.5 11.3 0.00 0.00 0.00 76
20260504174348 56 91 6.1 11.3 0.00 0.00 0.00 77
20260504173847 55 96 6.1 12.2 0.00 0.00 0.00 77
20260504173344 55 90 6.1 13.9 0.00 0.00 0.00 77
20260504172843 55 88 8.7 13.9 0.00 0.00 0.00 77
20260504172342 55 76 8.7 12.2 0.00 0.00 0.00 77
20260504171841 55 86 5.2 7.0 0.00 0.00 0.00 77
20260504171341 55 87 4.3 8.7 0.00 0.00 0.00 76
20260504170840 55 90 5.2 11.3 0.00 0.00 0.00 76
20260504170338 56 87 6.1 12.2 0.00 0.00 0.00 76
20260504160324 57 84 4.3 8.7 0.00 0.00 0.00 71
20260504150814 60 8 0.9 5.2 0.00 0.00 0.00 71
20260504150313 60 151 1.7 6.1 0.00 0.00 0.00 70
20260504141302 59 156 5.2 7.8 0.00 0.00 0.00 63
20260504140801 60 178 4.3 7.0 0.00 0.00 0.00 62
20260504140300 60 161 3.5 7.8 0.00 0.00 0.00 61
20260504130748 60 190 7.8 11.3 0.00 0.00 0.00 63
20260504130248 60 208 6.1 10.4 0.00 0.00 0.00 63
20260504120236 66 215 6.1 11.3 0.00 0.00 0.00 55
20260504110222 68 239 2.6 13.9 0.00 0.00 0.00 51